• In Hungary
  • List of Countries
  • For 7 days
  • Water Temperature
  • Satellite Maps
  • Weather Map
  • News
  • Weather Widgets
  • user-avatar
    Login

    Hourly Weather Scherbaki

    Today, 19 July, Thursday

    Time Temperature Precipitation Wind Pressure Humidity
    00:00 +15°C° 0.1 mm 2 mps 708 mmHg 94%
    01:00 +15°C° 0.1 mm 2 mps 708 mmHg 95%
    02:00 +14°C° 0.1 mm 2 mps 708 mmHg 95%
    03:00 +14°C° 0.1 mm 2 mps 708 mmHg 95%
    04:00 +14°C° 0 mm 1 mps 708 mmHg 94%
    05:00 +15°C° 0.3 mm 1 mps 708 mmHg 92%
    06:00 +16°C° 0.3 mm 1 mps 708 mmHg 90%
    07:00 +19°C° 0.3 mm 1 mps 709 mmHg 88%
    08:00 +20°C° 0.4 mm 1 mps 709 mmHg 83%
    09:00 +22°C° 0.4 mm 1 mps 709 mmHg 79%
    10:00 +24°C° 0 mm 1 mps 709 mmHg 74%
    11:00 +24°C° 1.3 mm 1 mps 709 mmHg 74%
    12:00 +24°C° 1.3 mm 1 mps 709 mmHg 73%
    13:00 +25°C° 1.3 mm 1 mps 709 mmHg 73%
    14:00 +25°C° 0.5 mm 1 mps 709 mmHg 71%
    15:00 +25°C° 0.5 mm 1 mps 709 mmHg 69%
    16:00 +26°C° 0.5 mm 1 mps 709 mmHg 66%
    17:00 +25°C° 0.4 mm 1 mps 709 mmHg 72%
    18:00 +24°C° 0.4 mm 1 mps 709 mmHg 78%
    19:00 +23°C° 0.4 mm 1 mps 709 mmHg 83%
    20:00 +22°C° 0.2 mm 1 mps 709 mmHg 85%
    21:00 +20°C° 0.2 mm 1 mps 709 mmHg 87%
    22:00 +19°C° 0.2 mm 1 mps 709 mmHg 89%
    23:00 +18°C° 0 mm 1 mps 709 mmHg 89%

    Tomorrow, 20 July, Friday

    Time Temperature Precipitation Wind Pressure Humidity
    00:00 +18°C° 0 mm 1 mps 709 mmHg 90%
    01:00 +16°C° 0 mm 1 mps 709 mmHg 90%
    02:00 +16°C° 0 mm 1 mps 709 mmHg 90%
    03:00 +16°C° 0 mm 1 mps 709 mmHg 90%
    04:00 +15°C° 0 mm 1 mps 709 mmHg 91%
    05:00 +18°C° 0 mm 1 mps 709 mmHg 89%
    06:00 +19°C° 0 mm 1 mps 709 mmHg 88%
    07:00 +21°C° 0 mm 1 mps 709 mmHg 86%
    08:00 +22°C° 0.1 mm 1 mps 710 mmHg 80%
    09:00 +24°C° 0.1 mm 1 mps 710 mmHg 74%
    10:00 +25°C° 0.1 mm 1 mps 710 mmHg 68%
    11:00 +26°C° 0.5 mm 1 mps 710 mmHg 66%
    12:00 +26°C° 0.5 mm 1 mps 710 mmHg 65%
    13:00 +27°C° 0.5 mm 1 mps 710 mmHg 63%
    14:00 +26°C° 1.6 mm 1 mps 710 mmHg 68%
    15:00 +26°C° 1.6 mm 1 mps 710 mmHg 72%
    16:00 +25°C° 1.6 mm 2 mps 710 mmHg 77%
    17:00 +24°C° 0.6 mm 2 mps 710 mmHg 81%
    18:00 +23°C° 0.6 mm 2 mps 710 mmHg 84%
    19:00 +21°C° 0.6 mm 2 mps 709 mmHg 88%
    20:00 +20°C° 0 mm 2 mps 709 mmHg 89%
    21:00 +19°C° 0 mm 2 mps 709 mmHg 91%
    22:00 +18°C° 0 mm 2 mps 709 mmHg 93%
    23:00 +17°C° 0 mm 3 mps 709 mmHg 93%

    Day after tomorrow, 21 July, Saturday

    Time Temperature Precipitation Wind Pressure Humidity
    00:00 +17°C° 0 mm 3 mps 709 mmHg 94%
    01:00 +17°C° 0 mm 3 mps 709 mmHg 95%
    02:00 +17°C° 0 mm 3 mps 709 mmHg 95%
    03:00 +16°C° 0 mm 3 mps 709 mmHg 96%
    04:00 +16°C° 0 mm 3 mps 710 mmHg 96%
    05:00 +17°C° 0 mm 4 mps 710 mmHg 95%
    06:00 +17°C° 0 mm 4 mps 710 mmHg 93%
    07:00 +17°C° 0 mm 5 mps 710 mmHg 91%
    08:00 +19°C° 0 mm 5 mps 710 mmHg 86%
    09:00 +20°C° 0 mm 5 mps 711 mmHg 80%
    10:00 +21°C° 0 mm 5 mps 711 mmHg 75%
    11:00 +21°C° 0 mm 6 mps 711 mmHg 72%
    12:00 +22°C° 0 mm 6 mps 711 mmHg 69%
    13:00 +22°C° 0 mm 6 mps 711 mmHg 66%
    14:00 +22°C° 0 mm 6 mps 711 mmHg 66%
    15:00 +22°C° 0 mm 6 mps 711 mmHg 66%
    16:00 +22°C° 0 mm 6 mps 711 mmHg 67%
    17:00 +22°C° 0 mm 6 mps 711 mmHg 70%
    18:00 +21°C° 0 mm 5 mps 711 mmHg 73%
    19:00 +20°C° 0 mm 5 mps 711 mmHg 76%
    20:00 +19°C° 0 mm 5 mps 711 mmHg 76%
    21:00 +17°C° 0 mm 5 mps 711 mmHg 75%
    22:00 +17°C° 0 mm 5 mps 711 mmHg 75%
    23:00 +16°C° 0 mm 6 mps 711 mmHg 75%

    22 July, Sunday

    Time Temperature Precipitation Wind Pressure Humidity
    00:00 +16°C° 0 mm 6 mps 711 mmHg 75%
    01:00 +16°C° 0 mm 6 mps 711 mmHg 75%
    02:00 +15°C° 0 mm 6 mps 711 mmHg 77%
    03:00 +15°C° 0 mm 6 mps 711 mmHg 79%
    04:00 +14°C° 0 mm 6 mps 711 mmHg 81%
    05:00 +14°C° 0 mm 6 mps 711 mmHg 80%
    06:00 +15°C° 0 mm 6 mps 711 mmHg 78%
    07:00 +15°C° 0 mm 7 mps 711 mmHg 76%
    08:00 +16°C° 0 mm 7 mps 712 mmHg 71%
    09:00 +17°C° 0 mm 7 mps 712 mmHg 67%
    10:00 +18°C° 0 mm 8 mps 712 mmHg 62%
    11:00 +20°C° 0 mm 7 mps 712 mmHg 59%
    12:00 +20°C° 0 mm 7 mps 712 mmHg 55%
    13:00 +21°C° 0 mm 7 mps 712 mmHg 52%
    14:00 +21°C° 0 mm 6 mps 712 mmHg 52%
    15:00 +21°C° 0 mm 6 mps 712 mmHg 52%
    16:00 +21°C° 0 mm 6 mps 712 mmHg 52%
    17:00 +19°C° 0 mm 5 mps 712 mmHg 57%
    18:00 +17°C° 0 mm 5 mps 712 mmHg 61%
    19:00 +17°C° 0 mm 4 mps 712 mmHg 66%
    20:00 +15°C° 0 mm 4 mps 712 mmHg 66%
    21:00 +14°C° 0 mm 4 mps 712 mmHg 67%
    22:00 +13°C° 0 mm 4 mps 713 mmHg 67%
    23:00 +12°C° 0 mm 4 mps 713 mmHg 68%

    23 July, Monday

    Time Temperature Precipitation Wind Pressure Humidity
    00:00 +11°C° 0 mm 4 mps 713 mmHg 68%
    01:00 +11°C° 0 mm 4 mps 713 mmHg 69%
    02:00 +10°C° 0 mm 4 mps 713 mmHg 71%
    03:00 +10°C° 0 mm 4 mps 713 mmHg 74%
    04:00 +8°C° 0 mm 4 mps 713 mmHg 76%
    05:00 +10°C° 0 mm 4 mps 713 mmHg 74%
    06:00 +11°C° 0 mm 4 mps 714 mmHg 71%
    07:00 +12°C° 0 mm 5 mps 714 mmHg 69%
    08:00 +13°C° 0 mm 5 mps 714 mmHg 65%
    09:00 +15°C° 0 mm 5 mps 714 mmHg 60%
    10:00 +16°C° 0 mm 5 mps 714 mmHg 56%
    11:00 +17°C° 0 mm 5 mps 714 mmHg 54%
    12:00 +19°C° 0 mm 5 mps 714 mmHg 52%
    13:00 +20°C° 0 mm 4 mps 714 mmHg 50%
    14:00 +20°C° 0 mm 4 mps 714 mmHg 50%
    15:00 +20°C° 0 mm 4 mps 714 mmHg 50%
    16:00 +21°C° 0 mm 4 mps 714 mmHg 50%
    17:00 +19°C° 0 mm 3 mps 714 mmHg 56%
    18:00 +18°C° 0 mm 3 mps 714 mmHg 62%
    19:00 +17°C° 0 mm 3 mps 714 mmHg 68%
    20:00 +15°C° 0 mm 2 mps 714 mmHg 73%
    21:00 +13°C° 0 mm 2 mps 714 mmHg 78%
    22:00 +10°C° 0 mm 2 mps 714 mmHg 83%
    23:00 +10°C° 0 mm 2 mps 714 mmHg 85%

    24 July, Tuesday

    Time Temperature Precipitation Wind Pressure Humidity
    00:00 +9°C° 0 mm 2 mps 714 mmHg 88%
    01:00 +9°C° 0 mm 2 mps 714 mmHg 90%
    02:00 +8°C° 0 mm 2 mps 714 mmHg 91%
    03:00 +8°C° 0 mm 2 mps 715 mmHg 91%
    04:00 +8°C° 0 mm 2 mps 715 mmHg 92%
    05:00 +10°C° 0 mm 2 mps 715 mmHg 86%
    06:00 +12°C° 0 mm 2 mps 715 mmHg 80%
    07:00 +14°C° 0 mm 2 mps 716 mmHg 74%
    08:00 +16°C° 0 mm 2 mps 716 mmHg 67%
    09:00 +18°C° 0 mm 2 mps 716 mmHg 60%
    10:00 +20°C° 0 mm 3 mps 717 mmHg 53%
    11:00 +22°C° 0 mm 3 mps 717 mmHg 51%
    12:00 +24°C° 0 mm 3 mps 717 mmHg 50%
    13:00 +25°C° 0 mm 3 mps 717 mmHg 48%
    14:00 +25°C° 0 mm 2 mps 717 mmHg 48%
    15:00 +25°C° 0 mm 2 mps 717 mmHg 49%
    16:00 +26°C° 0 mm 2 mps 717 mmHg 49%
    17:00 +25°C° 0 mm 2 mps 716 mmHg 57%
    18:00 +23°C° 0 mm 2 mps 716 mmHg 65%
    19:00 +22°C° 0 mm 1 mps 716 mmHg 73%
    20:00 +20°C° 0 mm 1 mps 716 mmHg 78%
    21:00 +19°C° 0 mm 1 mps 716 mmHg 83%
    22:00 +16°C° 0 mm 1 mps 716 mmHg 88%
    23:00 +15°C° 0 mm 1 mps 716 mmHg 89%
    Show more